Regional Weather Roundup
Issued by NWS

Home | Current Version | Previous Version | Text Only | Print | Product List | Glossary Off
Versions: 1 2 3 4 5 6 7 8 9 10 11 12 13 14 15 16 17 18 19 20 21 22 23 24 25 26 27 28 29 30 31 32 33 34 35 36 37 38 39 40 41 42 43 44 45 46 47 48 49 50

000
ASUS43 KDMX 041907
RWRIA

WEATHER ROUNDUP FOR IOWA
NATIONAL WEATHER SERVICE DES MOINES IA
200 PM CDT MON MAY 04 2015

NOTE: "FAIR" INDICATES FEW OR NO CLOUDS BELOW 12,000 FEET WITH NO
SIGNIFICANT WEATHER AND/OR OBSTRUCTIONS TO VISIBILITY.

* - THESE STATIONS ARE NOT NWS STATIONS...THUS NOT UNDER NWS
QUALITY CONTROL.  THEY ALSO DO NOT REPORT WEATHER SUCH
AS PRECIPITATION OR FOG.

IAZ001>003-012>014-020>022-031>034-043>046-042000-
   NORTHWEST IOWA

CITY           SKY/WX    TMP DP  RH WIND       PRES   REMARKS
CARROLL *      PTSUNNY   68  48  49 NE20      30.10F
CHEROKEE *     CLOUDY    68  36  30 E15G23    30.14S
DENISON *      MOSUNNY   68  45  42 E18G25    30.09R
LE MARS *      SUNNY     72  36  26 NE17G23   30.14S
ORANGE CITY *  SUNNY     70  34  26 E12G22    30.15R
SHELDON *      SUNNY     70  37  30 E15G24    30.14S
SIOUX CITY     LGT RAIN  65  44  46 E16G22    30.14R
SPENCER        CLOUDY    69  34  27 NE17G26   30.15S
STORM LAKE *   MOSUNNY   64  41  42 E24G31    30.14S
$$

IAZ055>058-069>071-079>083-090>094-042000-
   SOUTHWEST IOWA

CITY           SKY/WX    TMP DP  RH WIND       PRES   REMARKS
ATLANTIC *     LGT RAIN  66  61  82 NE13      30.05R
AUDUBON *      SUNNY     68  57  68 E15       30.09F
CLARINDA *     PTSUNNY   66  61  82 NE7       30.07R
COUNCIL BLFS * MOSUNNY   64  63  94 NE13      30.08R
CRESTON *      CLOUDY    66  63  88 NE16      30.06F
HARLAN  *      LGT RAIN  66  61  82 E12G22    30.10F
LAMONI         CLOUDY    72  62  71 NE12G20   30.06F
RED OAK *      PTSUNNY   66  61  82 NE10      30.07R
SHENANDOAH *   MOSUNNY   66  63  88 NE13      30.07R
$$

IAZ047>049-059>061-072>074-084-042000-
   CENTRAL IOWA

CITY           SKY/WX    TMP DP  RH WIND       PRES   REMARKS
AMES           CLOUDY    67  57  70 E10       30.12R
ANKENY *       CLOUDY    70  61  73 NE7       30.10S
CHARITON *     SUNNY     73  63  68 N10       30.08R
DES MOINES     LGT RAIN  71  59  65 NE10      30.10S
GRINNELL*      CLOUDY    70  59  68 NE10      30.11R
KNOXVILLE *    DRIZZLE   72  61  68 NE6       30.07S
MARSHALLTOWN   CLOUDY    66  59  78 NE14      30.11R
PELLA *        PTSUNNY   75  64  69 N7        30.09S
PERRY *        CLOUDY    68  57  68 E10       30.10F
$$

IAZ004>006-015-016-023>025-035-036-042000-
   NORTH CENTRAL IOWA

CITY           SKY/WX    TMP DP  RH WIND       PRES   REMARKS
ALGONA *       SUNNY     68  37  32 NE16G28   30.15S
CLARION *      MOSUNNY   68  43  40 NE20      30.13S
ESTHERVILLE    CLOUDY    69  34  27 NE17G24   30.16R
FORT DODGE *   CLOUDY    64  45  48 NE12G17   30.15R
MASON CITY     PTSUNNY   69  40  34 NE16G23   30.16F
FOREST CITY *  SUNNY     66  37  34 NE15G23   30.16S
IOWA FALLS *   PTSUNNY   68  50  52 E12G21    30.14R
$$

IAZ007>011-017>019-026>030-037>042-050>054-066-042000-
   NORTHEAST IOWA

CITY           SKY/WX    TMP DP  RH WIND       PRES   REMARKS
CEDAR RAPIDS   CLOUDY    68  61  78 E10       30.10S
CHARLES CITY * PTSUNNY   66  43  42 NE14      30.16R
CLINTON *      PTSUNNY   70  61  73 NE6       30.14S
DECORAH *      SUNNY     68  43  40 VRB7G15   30.14S
DUBUQUE        PTSUNNY   72  58  61 NE7       30.12S
MONTICELLO *   PTSUNNY   72  63  73 NE6       30.11S
OELWEIN *      MOSUNNY   68  57  68 NE14      30.13F
WATERLOO       PTSUNNY   68  56  65 E16       30.12S
$$

IAZ064-065-067-068-078-042000-
   EAST CENTRAL IOWA

CITY           SKY/WX    TMP DP  RH WIND       PRES   REMARKS
DAVENPORT      PTSUNNY   71  61  70 E9        30.11S
IOWA CITY      CLOUDY    72  63  73 NE7       30.10S
MT. PLEASANT * PTSUNNY   81  57  44 SW5       30.06S HX  81
MUSCATINE *    CLOUDY    75  64  69 NE12G17   30.09R
QUAD CITIES    PTSUNNY   76  63  64 NE9       30.09S
$$

IAZ062-063-075>077-085>089-095>099-042000-
   SOUTHEAST IOWA

CITY           SKY/WX    TMP DP  RH WIND       PRES   REMARKS
BURLINGTON     PTSUNNY   77  60  55 SE7       30.06F
FAIRFIELD *    SUNNY     79  57  47 SE7       30.06S HX  80
FORT MADISON * MOSUNNY   77  59  53 SW6       30.07S
KEOKUK *       CLOUDY    79  61  53 VRB6G12   30.05S HX  80
OSKALOOSA *    PTSUNNY   79  59  50 E9        30.06R HX  80
CENTERVILLE *  SUNNY     75  64  69 NW8       30.07S
OTTUMWA        PTSUNNY   79  57  46 E3        30.04F HX  80
WASHINGTON *   PTSUNNY   77  70  78 NE14G20   30.07S
$$

ABBREVIATIONS USED IN REMARKS
   TC - TEMPERATURES IN CELSIUS
  WCI - WIND CHILL INDEX
   HX - HEAT INDEX
  VSB - VISIBILITY
$$




USA.gov is the U.S. government's official web portal to all federal, state and local government web resources and services.